DECAYED

OBJECT X, 51845 (Decayed)

Orbit data source: Space-Track

You're viewing an Uncataloged Satellite

Recently launched and/or uncataloged satellites may have evolving metadata. Metadata may include but not limited to: Owner, Maufacturer, Bus, Motor, and Mission.

OBJECT X, 51845 was a Chinese satellite in LEO that was launched on Sun, 27 Feb 2022 UTC via a CHANG ZHENG 8 launch vehicle from the Wenchang Satellite Launch Center (WSC). Unknown objects in Earth's orbit typically refer to objects detected orbiting the Earth but have not yet been identified or cataloged. These objects could be anything from previously untracked satellites, spent rocket stages, debris from satellite collisions, or even natural meteoroids temporarily captured by Earth's gravity. This object's orbit decayed before it could be identified.

Not visible in the next 10 days
Identifier
51845, 2022-019X
Orbit
Decayed
Country
Flag of CNCN / PRC
Related business
None
Manufacturer
Unknown
Mission
Decayed Commercial Imaging
Bus & Motor
Unknown
Mass
Unknown
Launch date (UTC)
2022-02-27 (4 years ago)
Launch vehicle
CHANG ZHENG 8
Launch site
Wenchang Satellite Launch Center (WSC)
Object type
Unknown
Shape & HBR
Box, 0.1 m
Radar Cross Section
0.080 m², Medium (>0.1 m² and < 1m²)

Expand to show TLE details & history
Last TLE update: 7 months ago

TLE from 7 months ago
0 OBJECT X
1 51845U 22019X   25063.94877355  .12816835  25459-5  37373-3 0  9991
2 51845  97.3661 154.5538 0013317 276.3747  83.6038 16.44091342167915
Epoch: 2025-03-04T22:46Z
TLE epoch observation values (Epoch: 2025-03-04T22:46:14.034Z)
Latitude
-0.00004°
Longitude
10.05047°
Altitude
157.241 km
Speed
7.812 km/s
True Right ascension
10h 18m 12s
True Declination
0° 00' 00"
Sunlit
Object was in full shadow at epoch
Visualization orbit readout
Latitude
Unknown
Longitude
Unknown
Altitude
Unknown
Speed
Unknown
Apparent Right ascension
Unknown
Apparent Declination
Unknown
Sunlit
N/A
Visualization observer readout
Local Sidereal Time
18:51:38
Azimuth
Unknown
Elevation
Unknown
Doppler factor
Unknown
Orbital elements
Apogee altitude
160.438 km
Perigee altitude
143.046 km
Semi-major axis
6,529.879 km
Eccentricity
0.00133
Inclination
97.3661°
RAAN
154.5538°
Arg. of periapsis
276.3747°
True anomaly
83.75548°
Mean anomaly
83.6038°
Eccentric anomaly
83.67964°
Mean motion
4.11325 °/min
Orbital period
87.52 mins
BSTAR
0.00037373
Loading maneuver chart data...
Computing Atmospheric mass density...
Loading historical data...
Loading historical data...
Loading historical data...
Loading historical data...
Loading historical data...
Loading historical data...
Loading historical data...

Documentation

Showing up to 5 results
|